Погода в Навбахоре

Узбекистан     40°46′42″N   71°03′54″E
темп.,
°C
ветер,
м/с
пор.,
м/с
влажн.,
%
обл.,
%
осадки,
мм/ч
давл.,
гПа
погр.,
м
27 февраля, сб
сб2723:00−1св233175 0.0 103183
02:00−1в1233100 0.0 102937
05:00−1в0134100 0.0 103030
08:00−1св1131100 0.0 102993
11:00+2вюв1124100 0.0 1029685
14:00+4юв2120100 0.0 10291139
17:00+5в222196 0.0 10311130
20:00+3св462886 0.0 1035215
28 февраля, вс
вс2823:00+1св373954 0.0 1034189
02:000св23370 0.0 103339
05:00−1юв12420 0.0 103127
08:000в12430 0.0 102976
11:00+5в23290 0.0 1025663
14:00+8всв23240 0.0 1022977
17:00+9всв22230 0.0 1022981
20:00+6всв22310 0.0 102425
1 марта, пн
пн123:00+4св34410 0.0 102461
02:00+3всв234867 0.0 102344
05:00+2всв124683 0.0 102324
08:00+3всв2442100 0.0 1023139
11:00+8в332895 0.0 1021529
14:00+12всв231816 0.0 1020859
17:00+13всв22168 0.0 1020858
20:00+9в11240 0.0 102422
2 марта, вт
вт223:00+8всв22270 0.0 102522
02:00+6всв233633 0.0 102434
05:00+5всв224267 0.0 102435
08:00+6всв2337100 0.0 1024102
11:00+11в2324100 0.0 1022483
14:00+14в2218100 0.0 1021843
17:00+14юв1118100 0.0 1021682
20:00+12сз1123100 0.0 102222
3 марта, ср
ср323:00+11всв1226100 0.0 102322
02:00+9вюв0131100 0.0 102122
05:00+9св1132100 0.0 102122
08:00+10юв0136100 0.0 102123
11:00+13вюв223499 0.0 1020951
14:00+15ю3222100 0.0 10181546
17:00+15юз2325100 0.0 10181251
20:00+12ю2349100 0.1 1020242